LOCATION_NAME,SAMPLE COLLECTION TIME,DOSE EQUIVALENT RATE (nSv/h),GAMMA COUNT RATE R02 (CPM),GAMMA COUNT RATE R03 (CPM),GAMMA COUNT RATE R04 (CPM),GAMMA COUNT RATE R05 (CPM),GAMMA COUNT RATE R06 (CPM),GAMMA COUNT RATE R07 (CPM),GAMMA COUNT RATE R08 (CPM),GAMMA COUNT RATE R09 (CPM),STATUS
AK: FAIRBANKS,02/24/2009 22:29:00,,1060.00,571.00,169.00,77.00,51.00,75.00,32.00,20.00,APPROVED
AK: FAIRBANKS,02/24/2009 22:40:00,,1068.00,602.00,172.00,83.00,51.00,83.00,34.00,19.00,APPROVED
AK: FAIRBANKS,02/24/2009 23:53:00,,1105.00,610.00,182.00,81.00,55.00,79.00,34.00,22.00,APPROVED
AK: FAIRBANKS,02/25/2009 00:54:00,,1093.00,608.00,184.00,79.00,53.00,80.00,36.00,22.00,APPROVED
AK: FAIRBANKS,02/25/2009 01:54:00,,1097.00,615.00,186.00,84.00,54.00,80.00,35.00,22.00,APPROVED
AK: FAIRBANKS,02/25/2009 02:54:00,,1080.00,603.00,185.00,81.00,54.00,83.00,34.00,22.00,APPROVED
AK: FAIRBANKS,02/25/2009 03:54:00,,1082.00,607.00,182.00,83.00,54.00,82.00,36.00,22.00,APPROVED
AK: FAIRBANKS,02/25/2009 04:54:00,,1103.00,617.00,187.00,81.00,54.00,83.00,34.00,22.00,APPROVED
AK: FAIRBANKS,02/25/2009 05:55:00,,1107.00,616.00,187.00,84.00,54.00,84.00,35.00,21.00,APPROVED
AK: FAIRBANKS,02/25/2009 06:55:00,,1136.00,633.00,194.00,85.00,56.00,85.00,38.00,21.00,APPROVED
AK: FAIRBANKS,02/25/2009 07:55:00,,1130.00,632.00,191.00,86.00,56.00,84.00,37.00,22.00,APPROVED
AK: FAIRBANKS,02/25/2009 08:55:00,,1135.00,636.00,193.00,85.00,57.00,85.00,37.00,22.00,APPROVED
AK: FAIRBANKS,02/25/2009 09:55:00,,1154.00,667.00,204.00,88.00,56.00,88.00,38.00,22.00,APPROVED
AK: FAIRBANKS,02/25/2009 10:56:00,,1181.00,677.00,209.00,91.00,60.00,90.00,39.00,23.00,APPROVED
AK: FAIRBANKS,02/25/2009 11:56:00,,1178.00,649.00,201.00,89.00,56.00,86.00,38.00,23.00,APPROVED
AK: FAIRBANKS,02/25/2009 12:56:00,,1151.00,635.00,194.00,88.00,56.00,85.00,37.00,23.00,APPROVED
AK: FAIRBANKS,02/25/2009 13:56:00,,1169.00,633.00,194.00,89.00,57.00,82.00,37.00,22.00,APPROVED
AK: FAIRBANKS,02/25/2009 14:56:00,,1206.00,631.00,196.00,85.00,55.00,83.00,38.00,21.00,APPROVED
AK: FAIRBANKS,02/25/2009 15:57:00,,1187.00,630.00,194.00,87.00,57.00,85.00,37.00,22.00,APPROVED
AK: FAIRBANKS,02/25/2009 16:57:00,,1351.00,659.00,203.00,92.00,60.00,88.00,39.00,23.00,APPROVED
AK: FAIRBANKS,02/25/2009 17:57:00,,1267.00,644.00,202.00,90.00,60.00,89.00,41.00,22.00,APPROVED
AK: FAIRBANKS,02/25/2009 18:57:00,,1154.00,616.00,192.00,86.00,56.00,83.00,36.00,22.00,APPROVED
AK: FAIRBANKS,02/25/2009 19:57:00,,1054.00,603.00,188.00,84.00,55.00,83.00,37.00,21.00,APPROVED
AK: FAIRBANKS,02/25/2009 20:58:00,,1047.00,600.00,187.00,82.00,55.00,82.00,35.00,22.00,APPROVED
AK: FAIRBANKS,02/25/2009 21:58:00,,1058.00,606.00,191.00,82.00,57.00,84.00,33.00,23.00,APPROVED
AK: FAIRBANKS,02/25/2009 22:58:00,,1047.00,597.00,189.00,82.00,56.00,84.00,34.00,22.00,APPROVED
AK: FAIRBANKS,02/25/2009 23:58:00,,1049.00,605.00,185.00,84.00,54.00,83.00,36.00,22.00,APPROVED
AK: FAIRBANKS,02/26/2009 00:58:00,,1022.00,581.00,183.00,81.00,55.00,82.00,33.00,21.00,APPROVED
AK: FAIRBANKS,02/26/2009 01:59:00,,1001.00,564.00,176.00,79.00,52.00,78.00,34.00,22.00,APPROVED
AK: FAIRBANKS,02/26/2009 02:59:00,,1015.00,562.00,171.00,76.00,52.00,78.00,31.00,22.00,APPROVED
AK: FAIRBANKS,02/26/2009 03:59:00,,1022.00,570.00,173.00,76.00,51.00,76.00,32.00,21.00,APPROVED
AK: FAIRBANKS,02/26/2009 04:59:00,,1025.00,566.00,175.00,77.00,53.00,78.00,31.00,21.00,APPROVED
AK: FAIRBANKS,02/26/2009 05:59:00,,1031.00,563.00,177.00,76.00,53.00,78.00,33.00,21.00,APPROVED
AK: FAIRBANKS,02/26/2009 07:00:00,,1028.00,566.00,175.00,78.00,52.00,79.00,33.00,22.00,APPROVED
AK: FAIRBANKS,02/26/2009 08:00:00,,1027.00,570.00,172.00,76.00,53.00,76.00,33.00,22.00,APPROVED
AK: FAIRBANKS,02/26/2009 09:00:00,,1042.00,608.00,186.00,82.00,56.00,83.00,35.00,22.00,APPROVED
AK: FAIRBANKS,02/26/2009 10:00:00,,1055.00,635.00,198.00,88.00,57.00,88.00,38.00,22.00,APPROVED
AK: FAIRBANKS,02/26/2009 11:00:00,,1080.00,669.00,210.00,93.00,60.00,90.00,41.00,23.00,APPROVED
AK: FAIRBANKS,02/26/2009 12:01:00,,1095.00,686.00,218.00,95.00,62.00,96.00,42.00,23.00,APPROVED
AK: FAIRBANKS,02/26/2009 13:01:00,,1104.00,684.00,220.00,95.00,63.00,97.00,40.00,24.00,APPROVED
AK: FAIRBANKS,02/26/2009 14:01:00,,1097.00,682.00,218.00,96.00,61.00,91.00,41.00,23.00,APPROVED
AK: FAIRBANKS,02/26/2009 15:01:00,,1099.00,676.00,214.00,93.00,62.00,94.00,40.00,23.00,APPROVED
AK: FAIRBANKS,02/26/2009 16:01:00,,1077.00,643.00,207.00,90.00,59.00,90.00,38.00,23.00,APPROVED
AK: FAIRBANKS,02/26/2009 17:02:00,,1051.00,612.00,194.00,86.00,57.00,85.00,37.00,23.00,APPROVED
AK: FAIRBANKS,02/26/2009 18:02:00,,1026.00,607.00,191.00,85.00,57.00,84.00,37.00,22.00,APPROVED
AK: FAIRBANKS,02/26/2009 19:02:00,,1052.00,624.00,195.00,88.00,55.00,86.00,36.00,22.00,APPROVED
AK: FAIRBANKS,02/26/2009 20:02:00,,1083.00,645.00,204.00,90.00,57.00,87.00,37.00,22.00,APPROVED
AK: FAIRBANKS,02/26/2009 21:02:00,,1099.00,657.00,204.00,88.00,57.00,90.00,37.00,23.00,APPROVED
AK: FAIRBANKS,02/26/2009 22:03:00,,1127.00,681.00,210.00,91.00,61.00,92.00,40.00,21.00,APPROVED
AK: FAIRBANKS,02/26/2009 23:03:00,,1118.00,663.00,208.00,93.00,59.00,90.00,37.00,22.00,APPROVED
AK: FAIRBANKS,02/27/2009 00:03:00,,1134.00,681.00,209.00,89.00,59.00,90.00,38.00,23.00,APPROVED
AK: FAIRBANKS,02/27/2009 01:03:00,,1137.00,678.00,212.00,91.00,59.00,90.00,39.00,22.00,APPROVED
AK: FAIRBANKS,02/27/2009 02:03:00,,1161.00,689.00,212.00,93.00,60.00,94.00,37.00,22.00,APPROVED
AK: FAIRBANKS,02/27/2009 03:04:00,,1142.00,685.00,214.00,93.00,61.00,91.00,38.00,23.00,APPROVED
AK: FAIRBANKS,02/27/2009 04:04:00,,1063.00,630.00,196.00,86.00,58.00,87.00,37.00,22.00,APPROVED
AK: FAIRBANKS,02/27/2009 05:04:00,,992.00,570.00,177.00,79.00,52.00,80.00,33.00,21.00,APPROVED
AK: FAIRBANKS,02/27/2009 06:04:00,,927.00,513.00,163.00,73.00,48.00,70.00,32.00,22.00,APPROVED
AK: FAIRBANKS,02/27/2009 07:04:00,,956.00,484.00,149.00,71.00,46.00,67.00,31.00,19.00,APPROVED
AK: FAIRBANKS,02/27/2009 08:05:00,,1419.00,471.00,144.00,67.00,46.00,65.00,30.00,20.00,APPROVED
AK: FAIRBANKS,02/28/2009 00:08:00,,1985.00,494.00,148.00,67.00,46.00,68.00,29.00,22.00,APPROVED
AK: FAIRBANKS,02/28/2009 01:08:00,,1213.00,520.00,162.00,73.00,47.00,71.00,30.00,22.00,APPROVED
AK: FAIRBANKS,02/28/2009 02:08:00,,1224.00,555.00,169.00,76.00,52.00,74.00,32.00,21.00,APPROVED
AK: FAIRBANKS,02/28/2009 03:08:00,,1501.00,570.00,177.00,79.00,53.00,76.00,33.00,23.00,APPROVED
AK: FAIRBANKS,02/28/2009 04:09:00,,2679.00,580.00,180.00,79.00,53.00,80.00,36.00,22.00,APPROVED
AK: FAIRBANKS,02/28/2009 05:09:00,,1982.00,586.00,180.00,80.00,54.00,79.00,36.00,22.00,APPROVED
AK: FAIRBANKS,02/28/2009 06:09:00,,1279.00,584.00,178.00,79.00,54.00,82.00,35.00,22.00,APPROVED
AK: FAIRBANKS,02/28/2009 07:09:00,,1073.00,585.00,186.00,80.00,52.00,80.00,36.00,22.00,APPROVED
AK: FAIRBANKS,02/28/2009 08:09:00,,1048.00,572.00,179.00,78.00,53.00,79.00,35.00,22.00,APPROVED
AK: FAIRBANKS,02/28/2009 09:10:00,,1047.00,577.00,175.00,83.00,55.00,79.00,34.00,21.00,APPROVED
AK: FAIRBANKS,02/28/2009 10:10:00,,1039.00,580.00,181.00,81.00,53.00,79.00,34.00,21.00,APPROVED
AK: FAIRBANKS,02/28/2009 11:10:00,,1111.00,619.00,192.00,84.00,55.00,85.00,36.00,22.00,APPROVED
AK: FAIRBANKS,02/28/2009 12:10:00,,1176.00,646.00,198.00,85.00,57.00,85.00,37.00,22.00,APPROVED
AK: FAIRBANKS,02/28/2009 13:10:00,,1146.00,638.00,197.00,87.00,57.00,83.00,35.00,23.00,APPROVED
AK: FAIRBANKS,02/28/2009 14:11:00,,1153.00,610.00,189.00,82.00,55.00,82.00,36.00,21.00,APPROVED
AK: FAIRBANKS,02/28/2009 15:11:00,,1172.00,614.00,188.00,84.00,53.00,83.00,35.00,21.00,APPROVED
AK: FAIRBANKS,02/28/2009 16:11:00,,1109.00,615.00,193.00,83.00,55.00,83.00,34.00,22.00,APPROVED
AK: FAIRBANKS,02/28/2009 17:11:00,,1096.00,593.00,188.00,83.00,53.00,79.00,34.00,22.00,APPROVED
AK: FAIRBANKS,02/28/2009 18:11:00,,1064.00,565.00,175.00,76.00,51.00,76.00,32.00,21.00,APPROVED
AK: FAIRBANKS,02/28/2009 19:12:00,,1022.00,545.00,168.00,74.00,49.00,74.00,31.00,22.00,APPROVED
AK: FAIRBANKS,02/28/2009 20:12:00,,1001.00,533.00,163.00,74.00,48.00,73.00,31.00,21.00,APPROVED
AK: FAIRBANKS,02/28/2009 21:12:00,,996.00,535.00,165.00,75.00,48.00,75.00,31.00,20.00,APPROVED
AK: FAIRBANKS,02/28/2009 22:12:00,,986.00,539.00,166.00,72.00,51.00,72.00,30.00,21.00,APPROVED
AK: FAIRBANKS,02/28/2009 23:12:00,,969.00,524.00,162.00,71.00,48.00,71.00,29.00,21.00,APPROVED
AK: FAIRBANKS,03/01/2009 00:13:00,,936.00,498.00,152.00,69.00,45.00,70.00,28.00,22.00,APPROVED
AK: FAIRBANKS,03/01/2009 01:13:00,,925.00,479.00,151.00,67.00,45.00,66.00,28.00,20.00,APPROVED
AK: FAIRBANKS,03/01/2009 02:13:00,,900.00,476.00,143.00,67.00,45.00,67.00,27.00,20.00,APPROVED
AK: FAIRBANKS,03/01/2009 03:13:00,,884.00,449.00,139.00,66.00,43.00,62.00,27.00,20.00,APPROVED
AK: FAIRBANKS,03/01/2009 04:13:00,,884.00,447.00,134.00,63.00,40.00,64.00,27.00,19.00,APPROVED
AK: FAIRBANKS,03/01/2009 05:13:00,,898.00,461.00,136.00,64.00,44.00,65.00,28.00,21.00,APPROVED
AK: FAIRBANKS,03/01/2009 06:14:00,,908.00,480.00,145.00,66.00,44.00,65.00,28.00,20.00,APPROVED
AK: FAIRBANKS,03/01/2009 07:14:00,,913.00,492.00,151.00,69.00,45.00,68.00,29.00,20.00,APPROVED
AK: FAIRBANKS,03/01/2009 08:14:00,,885.00,470.00,142.00,65.00,46.00,65.00,30.00,21.00,APPROVED
AK: FAIRBANKS,03/01/2009 09:14:00,,932.00,458.00,140.00,64.00,47.00,63.00,28.00,20.00,APPROVED
AK: FAIRBANKS,03/01/2009 10:14:00,,1075.00,461.00,135.00,64.00,45.00,64.00,28.00,20.00,APPROVED
AK: FAIRBANKS,03/01/2009 11:15:00,,1402.00,480.00,144.00,68.00,46.00,65.00,31.00,20.00,APPROVED
AK: FAIRBANKS,03/01/2009 12:15:00,,1690.00,491.00,150.00,70.00,46.00,67.00,29.00,21.00,APPROVED
AK: FAIRBANKS,03/01/2009 22:17:00,,2351.00,507.00,159.00,71.00,48.00,71.00,31.00,21.00,APPROVED
AK: FAIRBANKS,03/01/2009 23:17:00,,2002.00,487.00,148.00,68.00,47.00,69.00,31.00,21.00,APPROVED
AK: FAIRBANKS,03/02/2009 00:17:00,,3019.00,479.00,148.00,69.00,46.00,66.00,30.00,20.00,APPROVED
AK: FAIRBANKS,03/03/2009 01:22:00,,1689.00,538.00,167.00,75.00,51.00,73.00,33.00,22.00,APPROVED
AK: FAIRBANKS,03/04/2009 19:25:00,,989.00,610.00,163.00,108.00,57.00,76.00,49.00,27.00,APPROVED
AK: FAIRBANKS,03/04/2009 20:25:00,,970.00,601.00,157.00,102.00,56.00,74.00,48.00,26.00,APPROVED
AK: FAIRBANKS,03/04/2009 21:25:00,,942.00,562.00,151.00,96.00,52.00,68.00,46.00,24.00,APPROVED
AK: FAIRBANKS,03/04/2009 22:25:00,,938.00,562.00,152.00,95.00,52.00,68.00,45.00,26.00,APPROVED
AK: FAIRBANKS,03/04/2009 23:26:00,,952.00,575.00,156.00,101.00,56.00,71.00,48.00,25.00,APPROVED
AK: FAIRBANKS,03/05/2009 00:26:00,,968.00,597.00,158.00,105.00,57.00,71.00,48.00,25.00,APPROVED
AK: FAIRBANKS,03/05/2009 01:26:00,,993.00,618.00,164.00,111.00,57.00,74.00,49.00,26.00,APPROVED
AK: FAIRBANKS,03/05/2009 02:26:00,,989.00,621.00,166.00,107.00,55.00,75.00,49.00,27.00,APPROVED
AK: FAIRBANKS,03/05/2009 03:26:00,,989.00,604.00,163.00,108.00,56.00,73.00,49.00,25.00,APPROVED
AK: FAIRBANKS,03/05/2009 04:27:00,,987.00,598.00,160.00,107.00,56.00,75.00,49.00,26.00,APPROVED
AK: FAIRBANKS,03/05/2009 05:27:00,,985.00,590.00,160.00,105.00,55.00,71.00,50.00,25.00,APPROVED
AK: FAIRBANKS,03/05/2009 06:27:00,,979.00,599.00,164.00,107.00,58.00,72.00,48.00,24.00,APPROVED
AK: FAIRBANKS,03/05/2009 07:27:00,,1036.00,652.00,172.00,114.00,60.00,81.00,51.00,27.00,APPROVED
AK: FAIRBANKS,03/05/2009 08:27:00,,1063.00,673.00,178.00,122.00,61.00,80.00,52.00,28.00,APPROVED
AK: FAIRBANKS,03/05/2009 09:28:00,,1057.00,666.00,176.00,118.00,62.00,78.00,51.00,27.00,APPROVED
AK: FAIRBANKS,03/05/2009 10:28:00,,1043.00,658.00,174.00,118.00,61.00,78.00,52.00,29.00,APPROVED
AK: FAIRBANKS,03/05/2009 11:28:00,,1078.00,675.00,179.00,123.00,64.00,83.00,52.00,27.00,APPROVED
AK: FAIRBANKS,03/05/2009 12:28:00,,1116.00,718.00,185.00,128.00,65.00,84.00,54.00,29.00,APPROVED
AK: FAIRBANKS,03/05/2009 13:28:00,,1154.00,754.00,195.00,133.00,68.00,88.00,56.00,31.00,APPROVED
AK: FAIRBANKS,03/05/2009 14:29:00,,1146.00,739.00,191.00,134.00,66.00,87.00,55.00,30.00,APPROVED
AK: FAIRBANKS,03/05/2009 15:29:00,,1136.00,737.00,190.00,134.00,67.00,89.00,56.00,31.00,APPROVED
AK: FAIRBANKS,03/05/2009 16:29:00,,1142.00,738.00,191.00,134.00,67.00,87.00,54.00,30.00,APPROVED
AK: FAIRBANKS,03/05/2009 17:29:00,,1124.00,720.00,188.00,128.00,65.00,87.00,55.00,29.00,APPROVED
AK: FAIRBANKS,03/05/2009 18:29:00,,1114.00,719.00,195.00,131.00,66.00,84.00,56.00,30.00,APPROVED
AK: FAIRBANKS,03/05/2009 19:30:00,,1115.00,716.00,186.00,133.00,66.00,86.00,54.00,30.00,APPROVED
AK: FAIRBANKS,03/05/2009 20:30:00,,1100.00,721.00,189.00,129.00,65.00,86.00,54.00,30.00,APPROVED
AK: FAIRBANKS,03/05/2009 21:30:00,,1080.00,697.00,185.00,126.00,64.00,85.00,54.00,29.00,APPROVED
AK: FAIRBANKS,03/05/2009 22:30:00,,1043.00,668.00,176.00,118.00,61.00,80.00,51.00,27.00,APPROVED
AK: FAIRBANKS,03/05/2009 23:30:00,,1016.00,647.00,168.00,115.00,58.00,78.00,49.00,28.00,APPROVED
AK: FAIRBANKS,03/06/2009 00:31:00,,974.00,595.00,163.00,103.00,55.00,75.00,47.00,26.00,APPROVED
AK: FAIRBANKS,03/06/2009 01:31:00,,1146.00,760.00,196.00,135.00,66.00,86.00,55.00,32.00,APPROVED
AK: FAIRBANKS,03/06/2009 02:31:00,,1167.00,777.00,201.00,141.00,70.00,95.00,56.00,32.00,APPROVED
AK: FAIRBANKS,03/06/2009 03:31:00,,1069.00,680.00,182.00,123.00,62.00,82.00,51.00,30.00,APPROVED
AK: FAIRBANKS,03/06/2009 04:31:00,,983.00,611.00,162.00,109.00,56.00,73.00,48.00,27.00,APPROVED
AK: FAIRBANKS,03/06/2009 05:32:00,,952.00,582.00,154.00,102.00,55.00,69.00,48.00,26.00,APPROVED
AK: FAIRBANKS,03/06/2009 06:32:00,,945.00,559.00,153.00,99.00,52.00,68.00,46.00,25.00,APPROVED
AK: FAIRBANKS,03/06/2009 07:32:00,,907.00,526.00,142.00,89.00,50.00,64.00,43.00,24.00,APPROVED
AK: FAIRBANKS,03/06/2009 08:32:00,,878.00,512.00,139.00,84.00,49.00,61.00,43.00,22.00,APPROVED
AK: FAIRBANKS,03/06/2009 09:33:00,,837.00,482.00,134.00,80.00,45.00,62.00,41.00,23.00,APPROVED
AK: FAIRBANKS,03/06/2009 10:33:00,,828.00,465.00,129.00,74.00,45.00,57.00,39.00,22.00,APPROVED
AK: FAIRBANKS,03/06/2009 11:33:00,,821.00,458.00,127.00,73.00,43.00,56.00,39.00,22.00,APPROVED
AK: FAIRBANKS,03/06/2009 12:33:00,,824.00,457.00,128.00,71.00,43.00,55.00,40.00,22.00,APPROVED
AK: FAIRBANKS,03/06/2009 13:33:00,,822.00,453.00,128.00,72.00,42.00,56.00,41.00,21.00,APPROVED
AK: FAIRBANKS,03/06/2009 14:34:00,,819.00,453.00,129.00,73.00,44.00,54.00,39.00,22.00,APPROVED
AK: FAIRBANKS,03/06/2009 15:34:00,,825.00,461.00,127.00,74.00,43.00,56.00,40.00,22.00,APPROVED
AK: FAIRBANKS,03/06/2009 16:34:00,,829.00,469.00,131.00,77.00,44.00,57.00,40.00,21.00,APPROVED
AK: FAIRBANKS,03/06/2009 17:34:00,,838.00,472.00,133.00,77.00,45.00,58.00,42.00,21.00,APPROVED
AK: FAIRBANKS,03/06/2009 18:34:00,,839.00,470.00,133.00,74.00,44.00,58.00,41.00,22.00,APPROVED
AK: FAIRBANKS,03/06/2009 19:35:00,,827.00,465.00,128.00,75.00,45.00,55.00,40.00,21.00,APPROVED
AK: FAIRBANKS,03/06/2009 20:35:00,,825.00,466.00,132.00,75.00,44.00,56.00,42.00,21.00,APPROVED
AK: FAIRBANKS,03/06/2009 21:35:00,,830.00,464.00,128.00,75.00,44.00,56.00,41.00,22.00,APPROVED
AK: FAIRBANKS,03/06/2009 22:35:00,,823.00,450.00,128.00,72.00,43.00,56.00,40.00,22.00,APPROVED
AK: FAIRBANKS,03/06/2009 23:35:00,,815.00,454.00,129.00,73.00,43.00,56.00,39.00,21.00,APPROVED
AK: FAIRBANKS,03/07/2009 00:36:00,,826.00,469.00,131.00,76.00,46.00,58.00,40.00,22.00,APPROVED
AK: FAIRBANKS,03/07/2009 01:36:00,,836.00,475.00,131.00,79.00,46.00,60.00,42.00,23.00,APPROVED
AK: FAIRBANKS,03/07/2009 02:36:00,,828.00,468.00,131.00,76.00,46.00,59.00,42.00,22.00,APPROVED
AK: FAIRBANKS,03/07/2009 03:36:00,,829.00,470.00,130.00,75.00,46.00,56.00,40.00,23.00,APPROVED
AK: FAIRBANKS,03/07/2009 04:36:00,,833.00,474.00,133.00,79.00,47.00,56.00,41.00,22.00,APPROVED
AK: FAIRBANKS,03/07/2009 05:37:00,,853.00,496.00,135.00,82.00,45.00,59.00,43.00,23.00,APPROVED
AK: FAIRBANKS,03/07/2009 06:37:00,,842.00,483.00,136.00,79.00,48.00,58.00,42.00,22.00,APPROVED
AK: FAIRBANKS,03/07/2009 07:37:00,,843.00,485.00,135.00,79.00,47.00,60.00,41.00,22.00,APPROVED
AK: FAIRBANKS,03/07/2009 08:37:00,,846.00,495.00,133.00,82.00,48.00,58.00,43.00,23.00,APPROVED
AK: FAIRBANKS,03/07/2009 09:37:00,,859.00,496.00,136.00,80.00,47.00,59.00,43.00,23.00,APPROVED
AK: FAIRBANKS,03/07/2009 11:38:00,,844.00,485.00,134.00,81.00,47.00,60.00,42.00,21.00,APPROVED
AK: FAIRBANKS,03/07/2009 12:38:00,,845.00,488.00,137.00,79.00,47.00,60.00,42.00,22.00,APPROVED
AK: FAIRBANKS,03/07/2009 13:38:00,,833.00,485.00,131.00,80.00,47.00,60.00,41.00,21.00,APPROVED
AK: FAIRBANKS,03/07/2009 14:38:00,,817.00,472.00,132.00,76.00,46.00,58.00,42.00,21.00,APPROVED
AK: FAIRBANKS,03/07/2009 15:39:00,,813.00,469.00,133.00,78.00,45.00,58.00,41.00,21.00,APPROVED
AK: FAIRBANKS,03/07/2009 16:39:00,,828.00,477.00,135.00,77.00,47.00,59.00,42.00,22.00,APPROVED
AK: FAIRBANKS,03/07/2009 17:39:00,,834.00,480.00,133.00,78.00,48.00,58.00,43.00,22.00,APPROVED
AK: FAIRBANKS,03/07/2009 20:40:00,,823.00,476.00,132.00,78.00,46.00,56.00,41.00,21.00,APPROVED
AK: FAIRBANKS,03/07/2009 21:40:00,,831.00,472.00,132.00,77.00,44.00,57.00,42.00,22.00,APPROVED
AK: FAIRBANKS,03/07/2009 22:40:00,,832.00,473.00,131.00,76.00,46.00,59.00,41.00,23.00,APPROVED
AK: FAIRBANKS,03/07/2009 23:40:00,,832.00,476.00,132.00,80.00,46.00,59.00,41.00,22.00,APPROVED
AK: FAIRBANKS,03/08/2009 00:40:00,,834.00,481.00,135.00,78.00,46.00,59.00,41.00,22.00,APPROVED
AK: FAIRBANKS,03/08/2009 01:41:00,,838.00,469.00,131.00,78.00,46.00,57.00,41.00,20.00,APPROVED
AK: FAIRBANKS,03/08/2009 03:41:00,,828.00,474.00,130.00,75.00,45.00,58.00,42.00,22.00,APPROVED
AK: FAIRBANKS,03/08/2009 03:41:00,,835.00,476.00,132.00,79.00,47.00,57.00,41.00,23.00,APPROVED
AK: FAIRBANKS,03/08/2009 04:41:00,,832.00,475.00,130.00,78.00,47.00,58.00,39.00,23.00,APPROVED
AK: FAIRBANKS,03/08/2009 05:41:00,,829.00,478.00,132.00,79.00,45.00,59.00,41.00,22.00,APPROVED
AK: FAIRBANKS,03/08/2009 06:42:00,,844.00,486.00,133.00,80.00,49.00,60.00,42.00,23.00,APPROVED
AK: FAIRBANKS,03/08/2009 07:42:00,,866.00,522.00,140.00,90.00,51.00,62.00,44.00,23.00,APPROVED
AK: FAIRBANKS,03/08/2009 21:45:00,,2273.00,496.00,154.00,72.00,45.00,68.00,30.00,21.00,APPROVED
AK: FAIRBANKS,03/08/2009 22:45:00,,959.00,502.00,155.00,71.00,48.00,70.00,31.00,21.00,APPROVED
AK: FAIRBANKS,03/08/2009 23:45:00,,934.00,503.00,157.00,69.00,46.00,70.00,30.00,21.00,APPROVED
AK: FAIRBANKS,03/09/2009 00:45:00,,917.00,496.00,156.00,70.00,47.00,69.00,30.00,21.00,APPROVED
AK: FAIRBANKS,03/09/2009 01:45:00,,920.00,503.00,160.00,70.00,46.00,70.00,30.00,20.00,APPROVED
AK: FAIRBANKS,03/09/2009 02:46:00,,918.00,505.00,159.00,69.00,47.00,70.00,30.00,21.00,APPROVED
AK: FAIRBANKS,03/09/2009 03:46:00,,949.00,511.00,158.00,70.00,47.00,70.00,31.00,21.00,APPROVED
AK: FAIRBANKS,03/09/2009 04:46:00,,1148.00,508.00,157.00,72.00,48.00,71.00,31.00,21.00,APPROVED
AK: FAIRBANKS,03/09/2009 05:46:00,,1604.00,519.00,160.00,73.00,47.00,71.00,32.00,22.00,APPROVED
AK: FAIRBANKS,03/09/2009 06:46:00,,3716.00,521.00,166.00,74.00,49.00,71.00,32.00,22.00,APPROVED
AK: FAIRBANKS,03/09/2009 20:49:00,,2167.00,613.00,193.00,85.00,54.00,86.00,37.00,22.00,APPROVED
AK: FAIRBANKS,03/09/2009 21:49:00,,1198.00,601.00,188.00,83.00,54.00,81.00,36.00,21.00,APPROVED
AK: FAIRBANKS,03/09/2009 22:50:00,,998.00,619.00,172.00,106.00,57.00,72.00,48.00,25.00,APPROVED
AK: FAIRBANKS,03/09/2009 23:50:00,,981.00,608.00,162.00,108.00,58.00,75.00,49.00,26.00,APPROVED
AK: FAIRBANKS,03/10/2009 00:50:00,,991.00,617.00,165.00,111.00,59.00,78.00,52.00,28.00,APPROVED
AK: FAIRBANKS,03/10/2009 01:50:00,,980.00,616.00,165.00,111.00,58.00,75.00,49.00,28.00,APPROVED
AK: FAIRBANKS,03/10/2009 02:50:00,,978.00,608.00,162.00,110.00,56.00,75.00,48.00,27.00,APPROVED
AK: FAIRBANKS,03/10/2009 03:51:00,,994.00,625.00,169.00,111.00,59.00,77.00,50.00,27.00,APPROVED
AK: FAIRBANKS,03/10/2009 04:51:00,,1000.00,635.00,167.00,118.00,62.00,79.00,51.00,28.00,APPROVED
AK: FAIRBANKS,03/10/2009 05:51:00,,1001.00,633.00,167.00,116.00,57.00,77.00,50.00,28.00,APPROVED
AK: FAIRBANKS,03/10/2009 08:52:00,,1006.00,630.00,167.00,112.00,58.00,75.00,50.00,27.00,APPROVED
AK: FAIRBANKS,03/10/2009 09:52:00,,1014.00,645.00,168.00,113.00,60.00,77.00,50.00,29.00,APPROVED
AK: FAIRBANKS,03/10/2009 10:52:00,,1016.00,648.00,170.00,120.00,57.00,78.00,50.00,28.00,APPROVED
AK: FAIRBANKS,03/10/2009 11:52:00,,1036.00,688.00,175.00,126.00,64.00,83.00,53.00,29.00,APPROVED
AK: FAIRBANKS,03/10/2009 12:53:00,,1044.00,701.00,185.00,134.00,67.00,86.00,56.00,30.00,APPROVED
AK: FAIRBANKS,03/10/2009 13:53:00,,1063.00,720.00,184.00,142.00,69.00,90.00,56.00,30.00,APPROVED
AK: FAIRBANKS,03/10/2009 14:53:00,,1090.00,756.00,192.00,146.00,72.00,93.00,58.00,32.00,APPROVED
AK: FAIRBANKS,03/10/2009 15:53:00,,1086.00,753.00,193.00,149.00,71.00,95.00,59.00,33.00,APPROVED
AK: FAIRBANKS,03/10/2009 16:53:00,,1073.00,755.00,194.00,150.00,70.00,93.00,59.00,31.00,APPROVED
AK: FAIRBANKS,03/10/2009 17:54:00,,1078.00,753.00,195.00,149.00,69.00,91.00,59.00,31.00,APPROVED
AK: FAIRBANKS,03/10/2009 18:54:00,,1064.00,725.00,193.00,145.00,68.00,90.00,56.00,32.00,APPROVED
AK: FAIRBANKS,03/10/2009 19:54:00,,1059.00,710.00,188.00,140.00,67.00,89.00,56.00,30.00,APPROVED
AK: FAIRBANKS,03/10/2009 20:54:00,,1043.00,695.00,183.00,133.00,64.00,87.00,53.00,30.00,APPROVED
AK: FAIRBANKS,03/10/2009 21:54:00,,1032.00,662.00,171.00,123.00,62.00,81.00,51.00,28.00,APPROVED
AK: FAIRBANKS,03/10/2009 22:55:00,,1008.00,637.00,169.00,115.00,59.00,78.00,50.00,28.00,APPROVED
AK: FAIRBANKS,03/10/2009 23:01:00,,997.00,635.00,181.00,121.00,55.00,79.00,50.00,27.00,APPROVED
AK: FAIRBANKS,03/11/2009 00:20:00,,955.00,549.00,146.00,88.00,50.00,65.00,45.00,23.00,APPROVED
AK: FAIRBANKS,03/11/2009 01:21:00,,975.00,572.00,152.00,93.00,51.00,67.00,47.00,23.00,APPROVED
AK: FAIRBANKS,03/11/2009 02:21:00,,964.00,578.00,155.00,99.00,53.00,70.00,46.00,25.00,APPROVED
AK: FAIRBANKS,03/11/2009 03:21:00,,962.00,585.00,154.00,100.00,53.00,69.00,47.00,25.00,APPROVED
AK: FAIRBANKS,03/11/2009 04:21:00,,963.00,584.00,154.00,98.00,54.00,69.00,45.00,26.00,APPROVED
AK: FAIRBANKS,03/11/2009 05:21:00,,967.00,591.00,157.00,99.00,54.00,72.00,48.00,26.00,APPROVED
AK: FAIRBANKS,03/11/2009 06:22:00,,988.00,606.00,160.00,106.00,57.00,72.00,48.00,26.00,APPROVED
AK: FAIRBANKS,03/11/2009 07:22:00,,988.00,620.00,159.00,108.00,58.00,74.00,49.00,28.00,APPROVED
AK: FAIRBANKS,03/11/2009 08:22:00,,999.00,633.00,165.00,112.00,58.00,74.00,50.00,27.00,APPROVED
AK: FAIRBANKS,03/11/2009 09:22:00,,1031.00,668.00,175.00,122.00,60.00,79.00,53.00,29.00,APPROVED
AK: FAIRBANKS,03/11/2009 10:22:00,,1051.00,696.00,178.00,129.00,65.00,83.00,52.00,29.00,APPROVED
AK: FAIRBANKS,03/11/2009 11:23:00,,1059.00,702.00,183.00,133.00,63.00,86.00,56.00,30.00,APPROVED
AK: FAIRBANKS,03/11/2009 12:23:00,,1050.00,708.00,182.00,133.00,65.00,89.00,55.00,30.00,APPROVED
AK: FAIRBANKS,03/11/2009 13:23:00,,1067.00,714.00,182.00,140.00,67.00,86.00,56.00,30.00,APPROVED
AK: FAIRBANKS,03/11/2009 14:23:00,,1062.00,711.00,186.00,134.00,65.00,85.00,55.00,30.00,APPROVED
AK: FAIRBANKS,03/11/2009 15:23:00,,1051.00,692.00,180.00,129.00,65.00,84.00,52.00,29.00,APPROVED
AK: FAIRBANKS,03/11/2009 16:24:00,,1047.00,695.00,182.00,134.00,65.00,86.00,56.00,31.00,APPROVED
AK: FAIRBANKS,03/11/2009 17:24:00,,1054.00,706.00,184.00,135.00,65.00,88.00,55.00,31.00,APPROVED
AK: FAIRBANKS,03/11/2009 18:24:00,,1075.00,722.00,186.00,136.00,67.00,87.00,55.00,30.00,APPROVED
AK: FAIRBANKS,03/11/2009 19:24:00,,1104.00,741.00,189.00,142.00,67.00,90.00,55.00,32.00,APPROVED
AK: FAIRBANKS,03/11/2009 20:24:00,,1108.00,748.00,194.00,139.00,68.00,90.00,56.00,32.00,APPROVED
AK: FAIRBANKS,03/11/2009 21:25:00,,1071.00,714.00,184.00,132.00,67.00,87.00,57.00,30.00,APPROVED
AK: FAIRBANKS,03/11/2009 23:25:00,,976.00,601.00,162.00,107.00,56.00,74.00,50.00,28.00,APPROVED
AK: FAIRBANKS,03/12/2009 00:25:00,,961.00,583.00,155.00,103.00,54.00,71.00,46.00,25.00,APPROVED
AK: FAIRBANKS,03/12/2009 01:25:00,,942.00,572.00,150.00,97.00,52.00,68.00,47.00,24.00,APPROVED
AK: FAIRBANKS,03/12/2009 02:26:00,,941.00,558.00,152.00,92.00,52.00,67.00,45.00,25.00,APPROVED
AK: FAIRBANKS,03/12/2009 03:26:00,,932.00,551.00,150.00,94.00,54.00,66.00,47.00,24.00,APPROVED
AK: FAIRBANKS,03/12/2009 04:26:00,,930.00,548.00,152.00,91.00,51.00,66.00,45.00,24.00,APPROVED
AK: FAIRBANKS,03/12/2009 05:26:00,,928.00,551.00,149.00,91.00,51.00,67.00,44.00,24.00,APPROVED